PGT910 LOWG-LTFJ

Flight info

Callsign PGT910
Flight time 1h 41m
Altitude 37000
Route MUREG DCT PETOV DCT PEROT DCT ETIDA M19 ADORU UM19 IBODU
Aircraft A21N/M-SDE2E3FGHIJ1RWXY/LB1

Departure

Time 2026-05-05 18:07
Airport Graz Airport (LOWG)

Arrival

Time 2026-05-05 19:48
Airport Istanbul Sabiha Gökçen International Airport (LTFJ)
Time Latitude Longitude Altitude Speed Heading
2026-05-05 17:51 46.99535 15.44334 1112 ft 0 kts 126°
2026-05-05 18:02 46.99533 15.44335 1118 ft 1 kts 137°
2026-05-05 18:02 46.99520 15.44329 1115 ft 3 kts 221°
2026-05-05 18:02 46.99501 15.44297 1117 ft 5 kts 248°
2026-05-05 18:02 46.99528 15.44251 1118 ft 8 kts 340°
2026-05-05 18:03 46.99590 15.44232 1116 ft 10 kts 349°
2026-05-05 18:03 46.99600 15.44229 1115 ft 4 kts 349°
2026-05-05 18:03 46.99635 15.44220 1116 ft 7 kts 350°
2026-05-05 18:03 46.99689 15.44205 1114 ft 9 kts 349°
2026-05-05 18:04 46.99761 15.44186 1121 ft 12 kts 349°
2026-05-05 18:04 46.99847 15.44162 1114 ft 13 kts 348°
2026-05-05 18:04 46.99944 15.44134 1123 ft 15 kts 349°
2026-05-05 18:04 47.00052 15.44105 1124 ft 16 kts 349°
2026-05-05 18:05 47.00169 15.44073 1123 ft 18 kts 349°
2026-05-05 18:05 47.00293 15.44027 1126 ft 19 kts 323°
2026-05-05 18:05 47.00377 15.43871 1126 ft 20 kts 303°
2026-05-05 18:05 47.00428 15.43750 1132 ft 14 kts 289°
2026-05-05 18:06 47.00415 15.43631 1137 ft 8 kts 223°
2026-05-05 18:06 47.00381 15.43614 1134 ft 8 kts 181°
2026-05-05 18:06 47.00137 15.43681 1125 ft 76 kts 170°
2026-05-05 18:06 46.99340 15.43899 1113 ft 151 kts 170°
2026-05-05 18:07 46.98268 15.44210 1673 ft 157 kts 170°
2026-05-05 18:07 46.97195 15.44555 2454 ft 161 kts 170°
2026-05-05 18:07 46.96137 15.45322 2963 ft 183 kts 146°
2026-05-05 18:07 46.95164 15.46647 3492 ft 198 kts 143°
2026-05-05 18:08 46.94117 15.48060 4034 ft 211 kts 144°
2026-05-05 18:08 46.92993 15.49548 4605 ft 225 kts 145°
2026-05-05 18:08 46.91804 15.51106 5129 ft 241 kts 144°
2026-05-05 18:08 46.90481 15.52843 5621 ft 260 kts 143°
2026-05-05 18:09 46.89120 15.54629 6363 ft 266 kts 142°
2026-05-05 18:09 46.87756 15.56418 7128 ft 268 kts 142°
2026-05-05 18:09 46.86368 15.58242 7930 ft 269 kts 142°
2026-05-05 18:09 46.84974 15.60125 8592 ft 280 kts 139°
2026-05-05 18:10 46.83553 15.62182 9124 ft 294 kts 138°
2026-05-05 18:10 46.82098 15.64307 9874 ft 298 kts 139°
2026-05-05 18:10 46.80599 15.66486 10396 ft 313 kts 139°
2026-05-05 18:10 46.79000 15.68795 10723 ft 333 kts 139°
2026-05-05 18:11 46.77301 15.71243 11002 ft 354 kts 139°
2026-05-05 18:11 46.75505 15.73833 11283 ft 372 kts 139°
2026-05-05 18:11 46.73617 15.76548 11532 ft 390 kts 139°
2026-05-05 18:11 46.71593 15.79267 11792 ft 401 kts 145°
2026-05-05 18:12 46.69208 15.81356 12234 ft 400 kts 159°
2026-05-05 18:12 46.66574 15.82657 12772 ft 401 kts 166°
2026-05-05 18:12 46.63883 15.83767 13367 ft 403 kts 167°
2026-05-05 18:12 46.61172 15.84879 13902 ft 406 kts 167°
2026-05-05 18:13 46.58450 15.86015 14342 ft 409 kts 166°
2026-05-05 18:13 46.55708 15.87174 14808 ft 412 kts 166°
2026-05-05 18:13 46.52943 15.88347 15285 ft 415 kts 166°
2026-05-05 18:13 46.50162 15.89525 15756 ft 418 kts 166°
2026-05-05 18:14 46.47360 15.90709 16149 ft 421 kts 166°
2026-05-05 18:14 46.44537 15.91901 16517 ft 424 kts 166°
2026-05-05 18:14 46.41692 15.93101 16896 ft 427 kts 166°
2026-05-05 18:14 46.38830 15.94308 17279 ft 430 kts 166°
2026-05-05 18:15 46.35985 15.95687 17654 ft 434 kts 160°
2026-05-05 18:15 46.33315 15.97795 18035 ft 441 kts 148°
2026-05-05 18:15 46.30981 16.00725 18395 ft 449 kts 135°
2026-05-05 18:15 46.29116 16.04368 18733 ft 455 kts 123°
2026-05-05 18:16 46.27767 16.08534 19099 ft 459 kts 114°
2026-05-05 18:16 46.26590 16.12836 19484 ft 461 kts 114°
2026-05-05 18:16 46.25406 16.17161 19870 ft 463 kts 114°
2026-05-05 18:16 46.24199 16.21484 20241 ft 465 kts 114°
2026-05-05 18:17 46.22974 16.25815 20600 ft 467 kts 114°
2026-05-05 18:17 46.21738 16.30161 21015 ft 469 kts 115°
2026-05-05 18:17 46.20491 16.34525 21478 ft 472 kts 114°
2026-05-05 18:17 46.19234 16.38914 21913 ft 474 kts 114°
2026-05-05 18:18 46.17970 16.43325 22293 ft 477 kts 114°
2026-05-05 18:18 46.16699 16.47759 22667 ft 480 kts 114°
2026-05-05 18:18 46.15416 16.52216 23047 ft 482 kts 114°
2026-05-05 18:18 46.14128 16.56689 23445 ft 484 kts 115°
2026-05-05 18:19 46.12837 16.61169 23851 ft 484 kts 115°
2026-05-05 18:19 46.11545 16.65640 24277 ft 483 kts 115°
2026-05-05 18:19 46.10254 16.70102 24677 ft 482 kts 115°
2026-05-05 18:19 46.08962 16.74559 25088 ft 482 kts 115°
2026-05-05 18:20 46.07671 16.79001 25510 ft 481 kts 115°
2026-05-05 18:20 46.06375 16.83442 25909 ft 481 kts 115°
2026-05-05 18:20 46.05078 16.87880 26315 ft 480 kts 115°
2026-05-05 18:20 46.03802 16.92243 26758 ft 478 kts 115°
2026-05-05 18:21 46.02496 16.96703 27226 ft 477 kts 115°
2026-05-05 18:21 46.01228 17.01031 27616 ft 476 kts 115°
2026-05-05 18:21 45.99940 17.05417 28001 ft 476 kts 115°
2026-05-05 18:21 45.98652 17.09799 28395 ft 475 kts 115°
2026-05-05 18:22 45.97363 17.14170 28785 ft 475 kts 115°
2026-05-05 18:22 45.96076 17.18533 29169 ft 474 kts 115°
2026-05-05 18:22 45.94785 17.22898 29547 ft 474 kts 115°
2026-05-05 18:22 45.93496 17.27248 29936 ft 473 kts 115°
2026-05-05 18:23 45.92205 17.31594 30253 ft 473 kts 115°
2026-05-05 18:23 45.90911 17.35941 30552 ft 473 kts 115°
2026-05-05 18:23 45.89619 17.40281 30837 ft 473 kts 115°
2026-05-05 18:23 45.88321 17.44629 31127 ft 474 kts 115°
2026-05-05 18:24 45.87022 17.48972 31414 ft 474 kts 115°
2026-05-05 18:24 45.85722 17.53312 31702 ft 474 kts 115°
2026-05-05 18:24 45.84419 17.57656 31981 ft 474 kts 115°
2026-05-05 18:24 45.83115 17.61996 32304 ft 473 kts 115°
2026-05-05 18:25 45.81815 17.66314 32625 ft 472 kts 115°
2026-05-05 18:25 45.79211 17.74941 33152 ft 471 kts 115°
2026-05-05 18:25 45.77907 17.79249 33392 ft 472 kts 115°
2026-05-05 18:26 45.76600 17.83561 33574 ft 473 kts 115°
2026-05-05 18:26 45.75285 17.87890 33703 ft 475 kts 115°
2026-05-05 18:26 45.73965 17.92228 33873 ft 476 kts 115°
2026-05-05 18:26 45.72643 17.96569 34107 ft 475 kts 115°
2026-05-05 18:27 45.71323 18.00893 34347 ft 473 kts 115°
2026-05-05 18:27 45.70006 18.05203 34560 ft 473 kts 115°
2026-05-05 18:27 45.68687 18.09511 34749 ft 472 kts 115°
2026-05-05 18:27 45.67368 18.13811 34920 ft 472 kts 115°
2026-05-05 18:28 45.64725 18.22403 35257 ft 472 kts 115°
2026-05-05 18:28 45.63401 18.26696 35410 ft 472 kts 115°
2026-05-05 18:28 45.62076 18.30984 35561 ft 472 kts 115°
2026-05-05 18:29 45.60750 18.35266 35708 ft 472 kts 115°
2026-05-05 18:29 45.59423 18.39547 35855 ft 471 kts 115°
2026-05-05 18:29 45.58097 18.43822 35998 ft 471 kts 115°
2026-05-05 18:29 45.56769 18.48094 36134 ft 471 kts 115°
2026-05-05 18:30 45.54558 18.55188 36343 ft 471 kts 115°
2026-05-05 18:30 45.53225 18.59451 36466 ft 470 kts 115°
2026-05-05 18:30 45.51893 18.63711 36602 ft 470 kts 115°
2026-05-05 18:31 45.50563 18.67958 36751 ft 469 kts 115°
2026-05-05 18:31 45.49232 18.72198 36889 ft 468 kts 115°
2026-05-05 18:31 45.46569 18.80656 36971 ft 467 kts 115°
2026-05-05 18:32 45.43908 18.89089 36943 ft 467 kts 115°
2026-05-05 18:32 45.41238 18.97519 36939 ft 466 kts 115°
2026-05-05 18:33 45.38067 19.05537 36951 ft 465 kts 125°
2026-05-05 18:33 45.34424 19.13139 36955 ft 465 kts 126°
2026-05-05 18:34 45.30764 19.20776 36948 ft 469 kts 125°
2026-05-05 18:34 45.27110 19.28415 36957 ft 469 kts 125°
2026-05-05 18:35 45.23475 19.35997 36951 ft 468 kts 126°
2026-05-05 18:35 45.19805 19.43631 36944 ft 467 kts 126°
2026-05-05 18:36 45.16130 19.51255 36958 ft 467 kts 126°
2026-05-05 18:36 45.12461 19.58846 36948 ft 466 kts 126°
2026-05-05 18:37 45.08792 19.66416 36955 ft 467 kts 126°
2026-05-05 18:37 45.05121 19.73967 36947 ft 467 kts 126°
2026-05-05 18:38 45.01440 19.81524 36949 ft 466 kts 126°
2026-05-05 18:38 44.97756 19.89066 36942 ft 465 kts 126°
2026-05-05 18:39 44.94069 19.96592 36938 ft 466 kts 126°
2026-05-05 18:39 44.90381 20.04100 36932 ft 467 kts 126°
2026-05-05 18:40 44.86689 20.11601 36934 ft 466 kts 126°
2026-05-05 18:40 44.82983 20.19107 36940 ft 466 kts 126°
2026-05-05 18:41 44.79272 20.26607 36930 ft 465 kts 126°
2026-05-05 18:41 44.75552 20.34104 36936 ft 466 kts 126°
2026-05-05 18:42 44.71831 20.41585 36937 ft 468 kts 126°
2026-05-05 18:42 44.68098 20.49067 36938 ft 470 kts 126°
2026-05-05 18:43 44.64370 20.56522 36936 ft 469 kts 126°
2026-05-05 18:43 44.60610 20.64020 36944 ft 468 kts 126°
2026-05-05 18:44 44.56845 20.71511 36949 ft 469 kts 126°
2026-05-05 18:44 44.53077 20.78989 36945 ft 471 kts 126°
2026-05-05 18:45 44.49297 20.86467 36942 ft 472 kts 126°
2026-05-05 18:45 44.45509 20.93939 36947 ft 470 kts 126°
2026-05-05 18:46 44.41720 21.01404 36951 ft 469 kts 126°
2026-05-05 18:46 44.37926 21.08853 36938 ft 469 kts 126°
2026-05-05 18:47 44.34112 21.16323 36950 ft 474 kts 126°
2026-05-05 18:47 44.30293 21.23782 36952 ft 474 kts 126°
2026-05-05 18:48 44.26466 21.31238 36950 ft 472 kts 126°
2026-05-05 18:48 44.22644 21.38667 36962 ft 470 kts 125°
2026-05-05 18:49 44.18817 21.46085 36974 ft 470 kts 125°
2026-05-05 18:49 44.14990 21.53483 36969 ft 471 kts 126°
2026-05-05 18:50 44.11184 21.60826 36986 ft 472 kts 126°
2026-05-05 18:50 44.07357 21.68193 36989 ft 471 kts 126°
2026-05-05 18:51 44.03507 21.75578 36984 ft 474 kts 126°
2026-05-05 18:51 43.99649 21.82962 36994 ft 473 kts 126°
2026-05-05 18:52 43.95785 21.90342 37004 ft 471 kts 125°
2026-05-05 18:52 43.91925 21.97687 36991 ft 471 kts 126°
2026-05-05 18:53 43.88059 22.05036 36987 ft 470 kts 126°
2026-05-05 18:53 43.84194 22.12359 36990 ft 472 kts 126°
2026-05-05 18:54 43.80321 22.19680 36995 ft 472 kts 126°
2026-05-05 18:54 43.76446 22.26993 36991 ft 471 kts 126°
2026-05-05 18:55 43.72553 22.34313 36989 ft 474 kts 126°
2026-05-05 18:55 43.68664 22.41657 36992 ft 472 kts 123°
2026-05-05 18:56 43.65113 22.49285 37002 ft 470 kts 121°
2026-05-05 18:56 43.61595 22.56940 37001 ft 472 kts 121°
2026-05-05 18:57 43.58101 22.64513 37002 ft 472 kts 121°
2026-05-05 18:57 43.54572 22.72135 37007 ft 471 kts 122°
2026-05-05 18:58 43.51029 22.79758 37019 ft 473 kts 121°
2026-05-05 18:58 43.47480 22.87383 37017 ft 474 kts 121°
2026-05-05 18:59 43.43925 22.95004 37017 ft 475 kts 122°
2026-05-05 18:59 43.40363 23.02617 37021 ft 474 kts 121°
2026-05-05 19:00 43.36792 23.10226 37019 ft 476 kts 122°
2026-05-05 19:00 43.33206 23.17847 37021 ft 474 kts 122°
2026-05-05 19:01 43.29618 23.25446 37019 ft 473 kts 122°
2026-05-05 19:01 43.26028 23.33038 37018 ft 473 kts 121°
2026-05-05 19:02 43.22435 23.40618 37034 ft 473 kts 121°
2026-05-05 19:02 43.18836 23.48188 37017 ft 472 kts 122°
2026-05-05 19:03 43.15234 23.55744 37028 ft 473 kts 122°
2026-05-05 19:03 43.11651 23.63241 37025 ft 474 kts 121°
2026-05-05 19:04 43.08020 23.70818 37032 ft 473 kts 121°
2026-05-05 19:04 43.04409 23.78337 37031 ft 473 kts 121°
2026-05-05 19:05 43.00781 23.85874 37036 ft 475 kts 121°
2026-05-05 19:05 42.97154 23.93388 37035 ft 475 kts 121°
2026-05-05 19:06 42.93522 24.00889 37039 ft 475 kts 121°
2026-05-05 19:06 42.89902 24.08349 37041 ft 475 kts 122°
2026-05-05 19:07 42.86259 24.15838 37052 ft 474 kts 121°
2026-05-05 19:07 42.82949 24.23573 37045 ft 472 kts 116°
2026-05-05 19:08 42.79847 24.31457 37048 ft 471 kts 116°
2026-05-05 19:08 42.76736 24.39327 37049 ft 471 kts 116°
2026-05-05 19:09 42.73620 24.47170 37038 ft 471 kts 116°
2026-05-05 19:09 42.70493 24.55023 37045 ft 471 kts 116°
2026-05-05 19:10 42.67362 24.62863 37044 ft 473 kts 116°
2026-05-05 19:10 42.64211 24.70733 37053 ft 473 kts 116°
2026-05-05 19:11 42.61064 24.78570 37034 ft 475 kts 116°
2026-05-05 19:11 42.57897 24.86426 37024 ft 474 kts 116°
2026-05-05 19:12 42.54721 24.94296 37026 ft 473 kts 116°
2026-05-05 19:12 42.51545 25.02149 37026 ft 475 kts 116°
2026-05-05 19:13 42.48365 25.09981 37016 ft 475 kts 116°
2026-05-05 19:13 42.45181 25.17808 37022 ft 475 kts 116°
2026-05-05 19:14 42.41991 25.25624 37032 ft 475 kts 116°
2026-05-05 19:14 42.38790 25.33440 37020 ft 475 kts 116°
2026-05-05 19:15 42.35588 25.41251 37014 ft 477 kts 116°
2026-05-05 19:15 42.32375 25.49056 37009 ft 476 kts 116°
2026-05-05 19:16 42.29165 25.56840 37011 ft 471 kts 117°
2026-05-05 19:16 42.25968 25.64566 37005 ft 472 kts 117°
2026-05-05 19:17 42.22785 25.72238 37004 ft 471 kts 117°
2026-05-05 19:17 42.19577 25.79954 37020 ft 472 kts 117°
2026-05-05 19:18 42.16381 25.87629 37013 ft 470 kts 117°
2026-05-05 19:18 42.13178 25.95296 37014 ft 469 kts 117°
2026-05-05 19:19 42.09970 26.02952 37018 ft 469 kts 117°
2026-05-05 19:19 42.06754 26.10610 37024 ft 472 kts 117°
2026-05-05 19:20 42.04063 26.16999 37023 ft 471 kts 117°
2026-05-05 19:20 42.00815 26.24694 37026 ft 472 kts 117°
2026-05-05 19:21 41.97568 26.32365 37024 ft 472 kts 117°
2026-05-05 19:21 41.94315 26.40030 37040 ft 472 kts 117°
2026-05-05 19:22 41.91058 26.47685 37039 ft 472 kts 117°
2026-05-05 19:22 41.87789 26.55322 37034 ft 472 kts 119°
2026-05-05 19:23 41.83799 26.62349 37048 ft 474 kts 128°
2026-05-05 19:23 41.79589 26.69106 37041 ft 468 kts 128°
2026-05-05 19:24 41.75446 26.75777 37047 ft 468 kts 128°
2026-05-05 19:24 41.71254 26.82535 37057 ft 475 kts 128°
2026-05-05 19:25 41.69151 26.85915 36738 ft 472 kts 128°
2026-05-05 19:25 41.67051 26.89288 36418 ft 472 kts 128°
2026-05-05 19:25 41.64949 26.92660 36133 ft 472 kts 128°
2026-05-05 19:25 41.62850 26.96027 35874 ft 471 kts 128°
2026-05-05 19:26 41.60751 26.99390 35628 ft 471 kts 128°
2026-05-05 19:26 41.58649 27.02756 35383 ft 471 kts 128°
2026-05-05 19:26 41.56550 27.06110 35132 ft 469 kts 128°
2026-05-05 19:26 41.54399 27.09374 34415 ft 470 kts 131°
2026-05-05 19:27 41.52114 27.12511 33573 ft 472 kts 133°
2026-05-05 19:27 41.49805 27.15632 32761 ft 472 kts 133°
2026-05-05 19:27 41.47503 27.18752 31973 ft 472 kts 133°
2026-05-05 19:27 41.45216 27.21863 31334 ft 467 kts 133°
2026-05-05 19:28 41.42952 27.24951 30583 ft 466 kts 133°
2026-05-05 19:28 41.40685 27.28039 29704 ft 466 kts 133°
2026-05-05 19:28 41.38410 27.31134 28636 ft 469 kts 133°
2026-05-05 19:28 41.36155 27.34201 27787 ft 471 kts 133°
2026-05-05 19:29 41.33850 27.37331 27332 ft 475 kts 133°
2026-05-05 19:29 41.31533 27.40474 27146 ft 477 kts 133°
2026-05-05 19:29 41.29208 27.43623 27091 ft 478 kts 133°
2026-05-05 19:29 41.26876 27.46775 27066 ft 478 kts 133°
2026-05-05 19:30 41.24570 27.49937 27077 ft 474 kts 130°
2026-05-05 19:30 41.22689 27.53465 27065 ft 460 kts 115°
2026-05-05 19:30 41.21531 27.57299 27066 ft 437 kts 107°
2026-05-05 19:30 41.20551 27.61023 27065 ft 420 kts 107°
2026-05-05 19:31 41.19567 27.64655 27069 ft 418 kts 108°
2026-05-05 19:31 41.18553 27.68269 27075 ft 418 kts 109°
2026-05-05 19:31 41.17519 27.71870 27080 ft 418 kts 109°
2026-05-05 19:31 41.16482 27.75444 26843 ft 411 kts 109°
2026-05-05 19:32 41.15445 27.79004 25908 ft 417 kts 109°
2026-05-05 19:32 41.14556 27.82731 25111 ft 438 kts 103°
2026-05-05 19:32 41.13817 27.86800 24311 ft 467 kts 103°
2026-05-05 19:32 41.12696 27.90895 23458 ft 476 kts 110°
2026-05-05 19:33 41.11405 27.94933 22399 ft 475 kts 110°
2026-05-05 19:33 41.10106 27.98956 21430 ft 473 kts 110°
2026-05-05 19:33 41.08823 28.02949 20812 ft 467 kts 110°
2026-05-05 19:33 41.07566 28.06876 20274 ft 458 kts 110°
2026-05-05 19:34 41.06333 28.10733 19723 ft 452 kts 110°
2026-05-05 19:34 41.05117 28.14538 19061 ft 446 kts 110°
2026-05-05 19:34 41.03913 28.18322 18002 ft 447 kts 110°
2026-05-05 19:35 41.01511 28.25846 15947 ft 437 kts 109°
2026-05-05 19:35 41.00353 28.29461 15389 ft 416 kts 109°
2026-05-05 19:35 40.99251 28.32891 15006 ft 393 kts 109°
2026-05-05 19:35 40.98210 28.36131 14672 ft 373 kts 109°
2026-05-05 19:36 40.97219 28.39220 14326 ft 356 kts 109°
2026-05-05 19:36 40.96270 28.42175 13968 ft 342 kts 108°
2026-05-05 19:36 40.95359 28.45013 13601 ft 328 kts 108°
2026-05-05 19:36 40.94485 28.47731 13330 ft 315 kts 108°
2026-05-05 19:37 40.93636 28.50368 12903 ft 309 kts 108°
2026-05-05 19:37 40.92800 28.52968 12387 ft 306 kts 108°
2026-05-05 19:37 40.91967 28.55555 11856 ft 305 kts 108°
2026-05-05 19:37 40.91138 28.58125 11357 ft 303 kts 108°
2026-05-05 19:38 40.90312 28.60679 10849 ft 301 kts 108°
2026-05-05 19:38 40.89504 28.63180 10353 ft 299 kts 108°
2026-05-05 19:38 40.88688 28.65701 9843 ft 298 kts 108°
2026-05-05 19:38 40.87876 28.68206 9308 ft 295 kts 108°
2026-05-05 19:39 40.87069 28.70691 8780 ft 293 kts 108°
2026-05-05 19:39 40.86268 28.73159 8256 ft 291 kts 108°
2026-05-05 19:39 40.85471 28.75611 7737 ft 290 kts 108°
2026-05-05 19:39 40.84678 28.78043 7237 ft 287 kts 109°
2026-05-05 19:40 40.83892 28.80458 6740 ft 286 kts 109°
2026-05-05 19:40 40.83109 28.82862 6272 ft 284 kts 109°
2026-05-05 19:40 40.82329 28.85250 5924 ft 281 kts 109°
2026-05-05 19:40 40.81560 28.87607 5466 ft 278 kts 109°
2026-05-05 19:41 40.80798 28.89938 5031 ft 274 kts 109°
2026-05-05 19:41 40.80061 28.92218 4833 ft 265 kts 109°
2026-05-05 19:41 40.79352 28.94410 4646 ft 255 kts 109°
2026-05-05 19:41 40.78667 28.96520 4465 ft 246 kts 110°
2026-05-05 19:42 40.77997 28.98576 4189 ft 242 kts 110°
2026-05-05 19:42 40.77431 29.00619 3968 ft 231 kts 97°
2026-05-05 19:42 40.77594 29.02610 3740 ft 214 kts 63°
2026-05-05 19:42 40.78332 29.04267 3442 ft 207 kts 52°
2026-05-05 19:43 40.79149 29.05824 3102 ft 206 kts 53°
2026-05-05 19:43 40.79919 29.07430 2979 ft 207 kts 57°
2026-05-05 19:43 40.80603 29.09047 2995 ft 190 kts 59°
2026-05-05 19:43 40.81168 29.10514 2994 ft 169 kts 60°
2026-05-05 19:44 40.81680 29.11878 2982 ft 170 kts 60°
2026-05-05 19:44 40.82221 29.13336 3004 ft 179 kts 60°
2026-05-05 19:44 40.82769 29.14817 3004 ft 179 kts 60°
2026-05-05 19:44 40.83317 29.16296 2978 ft 179 kts 61°
2026-05-05 19:45 40.83859 29.17761 2770 ft 174 kts 61°
2026-05-05 19:45 40.84372 29.19148 2514 ft 163 kts 61°
2026-05-05 19:45 40.84857 29.20460 2271 ft 152 kts 61°
2026-05-05 19:45 40.85297 29.21649 2025 ft 141 kts 61°
2026-05-05 19:46 40.85726 29.22809 1781 ft 140 kts 62°
2026-05-05 19:46 40.86154 29.23966 1555 ft 140 kts 62°
2026-05-05 19:46 40.86580 29.25119 1329 ft 140 kts 63°
2026-05-05 19:46 40.87007 29.26275 1103 ft 138 kts 63°
2026-05-05 19:47 40.87424 29.27402 851 ft 135 kts 63°
2026-05-05 19:47 40.87839 29.28505 625 ft 133 kts 63°
2026-05-05 19:47 40.88244 29.29596 428 ft 132 kts 64°
2026-05-05 19:47 40.88639 29.30676 306 ft 125 kts 63°
2026-05-05 19:48 40.88959 29.31540 302 ft 81 kts 64°
2026-05-05 19:48 40.89133 29.32004 307 ft 38 kts 64°
2026-05-05 19:48 40.89225 29.32247 309 ft 24 kts 58°
2026-05-05 19:48 40.89340 29.32403 308 ft 23 kts 34°
2026-05-05 19:49 40.89434 29.32487 308 ft 7 kts 34°
2026-05-05 19:49 40.89467 29.32500 310 ft 8 kts 352°
2026-05-05 19:49 40.89502 29.32405 309 ft 11 kts 288°
2026-05-05 19:49 40.89569 29.32349 310 ft 13 kts 348°
2026-05-05 19:50 40.89659 29.32305 308 ft 15 kts 334°
2026-05-05 19:50 40.89758 29.32241 311 ft 17 kts 334°
2026-05-05 19:50 40.89841 29.32187 313 ft 14 kts 334°
2026-05-05 19:50 40.89934 29.32127 316 ft 15 kts 334°
2026-05-05 19:51 40.90020 29.32072 316 ft 9 kts 334°
2026-05-05 19:51 40.90085 29.32063 316 ft 11 kts 37°
2026-05-05 19:51 40.90127 29.32158 316 ft 13 kts 65°
2026-05-05 19:51 40.90169 29.32274 316 ft 15 kts 64°
2026-05-05 19:52 40.90217 29.32404 316 ft 16 kts 64°
2026-05-05 19:52 40.90269 29.32545 314 ft 18 kts 63°
2026-05-05 19:52 40.90359 29.32568 316 ft 13 kts 332°
2026-05-05 19:52 40.90443 29.32508 318 ft 15 kts 332°
2026-05-05 19:53 40.90517 29.32462 316 ft 10 kts 336°
2026-05-05 19:53 40.90585 29.32420 316 ft 12 kts 327°
2026-05-05 19:53 40.90634 29.32325 316 ft 14 kts 325°
2026-05-05 19:53 40.90703 29.32284 316 ft 8 kts 336°
2026-05-05 19:54 40.90734 29.32218 316 ft 10 kts 263°
2026-05-05 19:54 40.90703 29.32124 316 ft 12 kts 244°
2026-05-05 19:54 40.90682 29.32062 316 ft 5 kts 272°
2026-05-05 19:54 40.90709 29.32021 316 ft 7 kts 332°
2026-05-05 19:55 40.90738 29.32002 316 ft 2 kts 334°
2026-05-05 19:55 40.90739 29.32001 316 ft 1 kts 334°
2026-05-05 19:55 40.90741 29.31999 316 ft 0 kts 334°